1500465600.49,1171,20.25,74544.5,23.99,4.89,-1.35,0,*55
1500465601.7,1172,20.25,74542.0,23.99,3.97,-2.23,0,*5A
1500465602.9,1173,20.25,74540.5,23.99,4.89,-0.93,0,*6A
1500465604.09,1174,20.25,74544.3,23.99,5.55,0.01,0,*7B
1500465605.26,1175,20.25,74540.3,24.07,4.89,-0.65,0,*65
1500465606.49,1176,20.25,74540.8,24.07,4.63,-1.01,0,*51
1500465607.69,1177,20.25,74540.8,24.11,4.05,-1.59,0,*5A
1500465608.93,1178,20.25,74540.5,24.11,3.75,-1.83,0,*52
1500465610.12,1179,20.25,74540.0,24.13,3.85,-1.51,0,*51
1500465611.38,1180,20.25,74540.8,24.15,2.81,-2.71,0,*55
1500465612.56,1181,20.25,74540.5,24.17,4.85,-0.19,0,*68
1500465613.78,1182,20.25,74542.5,24.19,6.13,1.01,0,*7D
1500465615.0,1183,20.25,74542.3,24.25,6.17,0.95,0,*4B
1500465616.17,1184,20.25,74542.0,24.25,4.41,-1.25,0,*5A
1500465617.35,1185,20.25,74540.0,24.25,1.83,-4.21,0,*51
1500465618.56,1186,20.25,74540.8,24.21,0.79,-5.47,0,*63
1500465619.78,1187,20.25,74542.0,24.21,0.21,-5.77,0,*6C
1500465620.99,1188,20.25,74542.0,24.15,-0.45,-6.59,0,*44
1500465622.2,1189,20.31,74546.3,24.13,-2.59,-8.93,0,*74
1500465623.44,1190,20.25,74540.0,24.01,-3.27,-9.57,0,*7E
1500465624.65,1191,20.25,74540.3,23.97,-3.11,-9.23,0,*71
1500465625.89,1192,20.25,74542.5,23.93,-1.47,-7.49,0,*75
1500465627.13,1193,20.25,74542.8,23.89,-1.47,-7.53,0,*74
1500465628.37,1194,20.25,74544.0,23.85,-2.11,-8.33,0,*76
1500465629.62,1195,20.25,74542.5,23.75,-3.47,-9.57,0,*79
1500465630.89,1196,20.25,74542.8,23.71,-3.51,-9.83,0,*70
1500465632.12,1197,20.25,74542.5,23.63,-4.89,-11.19,0,*4A
1500465633.36,1198,20.25,74542.8,23.55,-3.35,-9.41,0,*74
1500465634.57,1199,20.25,74540.3,23.49,-3.39,-9.61,0,*76
1500465635.83,1200,20.25,74540.8,23.45,-4.25,-10.67,0,*4D
1500465637.1,1201,20.25,74540.3,23.37,-5.31,-11.59,0,*41
1500465638.33,1202,20.25,74542.5,23.29,-4.57,-11.01,0,*41
1500465639.57,1203,20.25,74540.5,23.23,-5.03,-11.51,0,*4F
1500465640.77,1204,20.25,74542.0,23.15,-4.45,-10.85,0,*46
1500465641.96,1205,20.25,74542.8,23.09,-2.87,-8.93,0,*7C
1500465643.14,1206,20.25,74542.0,23.05,-2.35,-8.63,0,*75
1500465644.33,1207,20.25,74542.3,23.01,-4.33,-10.85,0,*41
1500465645.54,1208,20.25,74542.3,22.95,-4.13,-10.49,0,*40
1500465646.81,1209,20.25,74542.0,22.87,-2.63,-8.51,0,*73
1500465648.04,1210,20.25,74542.0,22.83,-1.87,-8.11,0,*72
1500465649.28,1211,20.25,74542.0,22.83,-1.87,-8.11,0,*73
1500465650.49,1212,20.25,74542.0,22.79,-1.87,-8.17,0,*73
1500465651.68,1213,20.25,74540.5,22.75,-0.65,-6.81,0,*42
1500465652.89,1214,20.25,74540.3,22.75,-0.11,-6.27,0,*4A
1500465654.07,1215,20.25,74546.3,22.71,-0.57,-6.69,0,*47
1500465655.27,1216,20.25,74542.3,22.71,-0.23,-6.43,0,*4F
1500465656.51,1217,20.25,74542.8,22.65,-0.97,-7.23,0,*43
1500465657.74,1218,20.25,74542.3,22.63,-0.89,-7.27,0,*41
1500465658.97,1219,20.25,74542.3,22.61,-0.15,-6.27,0,*46
1500465660.17,1220,20.25,74542.3,22.61,0.09,-6.13,0,*5B
1500465661.42,1221,20.25,74544.0,22.57,0.51,-5.69,0,*6C
1500465662.64,1222,20.25,74542.0,22.57,0.13,-6.01,0,*64
1500465663.85,1223,20.31,74542.8,22.55,-0.89,-7.19,0,*41
1500465665.02,1224,20.25,74542.3,22.55,0.09,-6.09,0,*53
1500465666.24,1225,20.25,74540.0,22.53,0.71,-5.47,0,*62
1500465667.47,1226,20.25,74542.5,22.51,0.51,-5.69,0,*6D
1500465668.71,1227,20.25,74542.0,22.49,0.41,-5.77,0,*6B
1500465669.93,1228,20.25,74542.8,22.49,0.43,-5.69,0,*69
1500465671.16,1229,20.25,74540.0,22.47,0.83,-5.27,0,*60
1500465672.4,1230,20.31,74542.8,22.41,1.01,-5.11,0,*50
1500465673.64,1231,20.25,74542.8,22.39,0.91,-5.11,0,*66
1500465674.82,1232,20.25,74542.3,22.39,1.05,-4.99,0,*58
1500465676.06,1233,20.31,74542.8,22.41,1.01,-5.03,0,*50
1500465677.29,1234,20.25,74542.0,22.39,1.17,-4.77,0,*5D
1500465678.56,1235,20.25,74542.8,22.37,1.13,-5.07,0,*50
1500465679.82,1236,20.31,74542.8,22.37,1.13,-4.77,0,*55
1500465681.06,1237,20.25,74542.8,22.35,1.09,-4.93,0,*57
1500465682.26,1238,20.25,74542.3,22.35,1.63,-4.45,0,*5F
1500465683.53,1239,20.25,74540.3,22.33,1.37,-4.85,0,*55
1500465684.74,1240,20.31,74544.3,22.31,1.01,-5.15,0,*54
1500465685.97,1241,20.25,74542.8,22.31,0.51,-5.65,0,*66
1500465687.19,1242,20.25,74542.3,22.29,0.87,-5.39,0,*6E
1500465688.38,1243,20.25,74540.3,22.27,0.37,-6.01,0,*62
1500465689.63,1244,20.25,74540.0,22.25,0.55,-5.73,0,*65
1500465690.91,1245,20.25,74542.5,22.21,1.13,-5.23,0,*56
1500465692.15,1246,20.25,74540.3,22.21,1.37,-4.99,0,*53
1500465693.35,1247,20.31,74544.0,22.19,1.75,-4.53,0,*59
1500465694.62,1248,20.31,74544.3,22.19,1.21,-5.19,0,*58
1500465695.84,1249,20.25,74540.0,22.15,0.95,-5.47,0,*60
1500465697.04,1250,20.31,74546.8,22.13,1.41,-4.93,0,*5E
1500465698.24,1251,20.31,74542.0,22.13,1.89,-4.33,0,*51
1500465699.47,1252,20.25,74542.3,22.13,1.51,-4.85,0,*5A
1500465700.68,1253,20.25,74540.8,22.09,0.17,-6.23,0,*6D
1500465701.93,1254,20.31,74544.3,22.09,1.09,-5.19,0,*5E
1500465703.16,1255,20.31,74542.0,22.05,1.17,-5.15,0,*50
1500465704.41,1256,20.31,74542.0,22.07,0.71,-5.77,0,*64
1500465705.64,1257,20.31,74544.3,21.99,0.79,-5.39,0,*63
1500465706.91,1258,20.31,74542.0,21.99,1.09,-5.03,0,*53
1500465708.15,1259,20.25,74542.3,21.95,1.01,-5.11,0,*55
1500465709.4,1260,20.25,74540.3,21.95,0.41,-5.65,0,*69
1500465710.6,1261,20.31,74542.5,21.91,0.43,-5.55,0,*6D
1500465711.86,1262,20.31,74542.5,21.91,0.63,-5.27,0,*69
1500465713.06,1263,20.25,74542.0,21.89,0.41,-5.43,0,*63
1500465714.24,1264,20.31,74544.8,21.87,-0.77,-6.69,0,*49
1500465715.44,1265,20.31,74540.0,21.85,-0.41,-6.13,0,*42
1500465716.62,1266,20.31,74542.0,21.83,0.05,-5.51,0,*5F
1500465717.83,1267,20.25,74542.5,21.79,0.87,-4.61,0,*63
1500465719.05,1268,20.31,74540.0,21.75,0.33,-5.19,0,*61
1500465720.3,1269,20.31,74540.3,21.73,0.13,-5.23,0,*6D
1500465721.56,1270,20.31,74540.8,21.73,0.13,-5.23,0,*65
1500465722.8,1271,20.25,74540.0,21.69,0.37,-4.93,0,*63
1500465724.04,1272,20.25,74540.8,21.69,-0.03,-5.27,0,*74
1500465725.24,1273,20.31,74542.5,21.67,0.09,-5.19,0,*51
1500465726.47,1274,20.31,74540.0,21.65,-0.23,-5.39,0,*43
1500465727.72,1275,20.25,74540.8,21.65,0.17,-4.81,0,*6A
1500465728.97,1276,20.31,74540.8,21.61,0.13,-4.77,0,*60
1500465730.17,1277,20.31,74540.8,21.59,-0.03,-4.93,0,*7C
1500465731.39,1278,20.31,74542.5,21.57,-0.53,-5.43,0,*44
1500465732.61,1279,20.31,74542.3,21.51,0.01,-4.77,0,*5F
1500465733.83,1280,20.31,74542.0,21.51,0.17,-4.53,0,*68
1500465735.01,1281,20.31,74540.8,21.49,0.01,-4.65,0,*52
1500465736.27,1282,20.31,74540.3,21.47,0.55,-4.01,0,*6C
1500465737.47,1283,20.31,74540.3,21.45,0.41,-4.09,0,*62
1500465738.69,1284,20.25,74538.5,21.43,0.13,-4.41,0,*68
1500465739.95,1285,20.31,74542.0,21.43,0.55,-3.71,0,*6F
1500465741.17,1286,20.31,74542.8,21.39,0.37,-3.91,0,*6B
1500465742.39,1287,20.25,74540.0,21.39,-0.11,-4.25,0,*4B
1500465743.61,1288,20.31,74542.8,21.37,1.13,-3.15,0,*50
1500465744.83,1289,20.25,74542.0,21.37,0.59,-3.51,0,*6E
1500465746.04,1290,20.31,74540.3,21.35,0.09,-4.05,0,*57
1500465747.2,1291,20.31,74542.3,21.29,0.01,-4.05,0,*53
1500465748.43,1292,20.31,74540.0,21.27,0.21,-3.83,0,*65
1500465749.65,1293,20.31,74542.8,21.25,0.37,-3.55,0,*6A
1500465750.88,1294,20.31,74542.3,21.23,0.25,-3.67,0,*69
1500465752.08,1295,20.31,74542.0,21.21,-0.27,-4.05,0,*46
1500465753.25,1296,20.25,74536.8,21.17,0.09,-3.75,0,*51
1500465754.42,1297,20.31,74540.3,21.17,-0.29,-4.05,0,*4F
1500465755.63,1298,20.31,74542.0,21.15,0.75,-2.95,0,*69
1500465756.84,1299,20.31,74542.0,21.13,1.17,-2.35,0,*51
1500465758.01,1300,20.31,74540.5,21.13,1.41,-2.19,0,*5D
1500465759.23,1301,20.31,74542.0,21.07,0.71,-2.87,0,*6C
1500465760.47,1302,20.31,74540.8,21.07,0.71,-2.75,0,*62
1500465761.67,1303,20.31,74542.5,21.05,1.25,-2.19,0,*5B
1500465762.89,1304,20.31,74542.0,21.03,0.95,-2.43,0,*6F
1500465764.06,1305,20.31,74542.5,21.01,0.97,-2.35,0,*6F
1500465765.26,1306,20.31,74542.8,20.99,0.97,-2.27,0,*6F
1500465766.49,1307,20.31,74542.0,20.99,1.55,-1.79,0,*59
1500465767.74,1308,20.31,74542.8,20.99,1.43,-1.87,0,*50
1500465769.0,1309,20.31,74540.8,20.95,1.89,-1.39,0,*5E
1500465770.23,1310,20.31,74542.3,20.97,1.85,-1.39,0,*58
1500465771.47,1311,20.31,74540.3,20.95,2.21,-0.97,0,*63
1500465772.7,1312,20.31,74540.3,20.95,2.51,-0.77,0,*69
1500465773.92,1313,20.31,74544.8,20.93,2.43,-0.89,0,*6C
1500465775.11,1314,20.31,74540.8,20.93,0.87,-2.43,0,*65
1500465776.32,1315,20.31,74538.3,20.89,0.67,-2.79,0,*68
1500465777.53,1316,20.31,74542.5,20.85,0.41,-2.91,0,*65
1500465778.77,1317,20.31,74540.8,20.81,1.13,-2.19,0,*56
1500465780.01,1318,20.31,74542.0,20.79,1.37,-2.03,0,*53
1500465781.25,1319,20.25,74538.5,20.77,2.17,-1.21,0,*5E
1500465782.45,1320,20.31,74544.5,20.75,2.01,-1.33,0,*52
1500465783.67,1321,20.31,74544.8,20.77,2.73,-0.69,0,*6A
1500465784.9,1322,20.25,74540.8,20.77,2.25,-1.33,0,*54
1500465786.15,1323,20.31,74542.8,20.73,2.01,-1.43,0,*50
1500465787.4,1324,20.31,74540.3,20.73,1.97,-1.83,0,*57
1500465788.64,1325,20.31,74544.3,20.73,1.97,-1.67,0,*5C
1500465789.88,1326,20.31,74542.3,20.71,1.21,-2.59,0,*5E
1500465791.11,1327,20.31,74544.5,20.69,1.79,-2.07,0,*50
1500465792.33,1328,20.31,74546.0,20.63,1.71,-2.23,0,*5B
1500465793.53,1329,20.31,74546.5,20.63,0.91,-3.31,0,*67
1500465794.76,1330,20.31,74544.0,20.59,0.95,-3.27,0,*65
1500465796.01,1331,20.31,74544.3,20.59,1.47,-2.63,0,*5B
1500465797.27,1332,20.31,74548.3,20.55,1.59,-2.47,0,*5D
1500465798.5,1333,20.31,74544.5,20.55,1.75,-2.55,0,*51
1500465799.71,1334,20.31,74544.0,20.53,1.83,-2.51,0,*5D
1500465800.89,1335,20.31,74544.8,20.53,2.65,-1.59,0,*5C
1500465802.11,1336,20.31,74542.5,20.51,2.99,-1.35,0,*54
1500465803.32,1337,20.31,74542.3,20.53,2.99,-1.35,0,*57
1500465804.52,1338,20.31,74544.3,20.49,2.73,-1.75,0,*53
1500465805.72,1339,20.31,74542.5,20.49,2.95,-1.47,0,*5B
1500465806.95,1340,20.31,74542.5,20.49,2.47,-2.11,0,*5A
1500465808.18,1341,20.31,74542.0,20.47,1.97,-2.79,0,*55
1500465809.45,1342,20.31,74544.0,20.47,2.43,-2.55,0,*52
1500465810.65,1343,20.31,74542.8,20.45,2.31,-2.59,0,*58
1500465811.88,1344,20.31,74542.0,20.45,2.25,-2.71,0,*50
1500465813.13,1345,20.31,74546.5,20.43,3.19,-1.83,0,*57
1500465814.39,1346,20.31,74542.5,20.43,2.77,-2.51,0,*51
1500465815.6,1347,20.31,74544.5,20.45,2.91,-2.51,0,*5E
1500465816.84,1348,20.31,74544.3,20.39,3.11,-2.27,0,*52
1500465818.06,1349,20.31,74544.3,20.43,2.59,-3.11,0,*57
1500465819.29,1350,20.31,74544.8,20.43,2.89,-2.83,0,*58
1500465820.54,1351,20.31,74542.8,20.43,3.49,-2.11,0,*5F
1500465821.74,1352,20.31,74542.8,20.43,4.81,-0.57,0,*6F
1500465822.97,1353,20.31,74542.5,20.47,6.35,1.01,0,*78
1500465824.22,1354,20.31,74540.8,20.51,7.65,2.43,0,*79
1500465825.44,1355,20.31,74546.3,20.59,9.11,3.81,0,*72
1500465826.65,1356,20.31,74542.5,20.69,9.75,4.37,0,*7A
1500465827.84,1357,20.31,74544.3,20.77,9.63,4.15,0,*73
1500465829.06,1358,20.31,74544.8,20.83,8.75,3.07,0,*75
1500465830.26,1359,20.31,74546.5,20.93,8.93,3.25,0,*7D
1500465831.46,1360,20.31,74546.8,20.97,8.83,3.07,0,*72
1500465832.65,1361,20.31,74544.0,21.05,7.61,1.79,0,*71
1500465833.87,1362,20.31,74546.5,21.11,7.45,1.33,0,*7F
1500465835.08,1363,20.31,74546.5,21.19,7.33,1.13,0,*75
1500465836.32,1364,20.31,74546.5,21.23,7.83,1.47,0,*71
1500465837.57,1365,20.31,74546.3,21.27,7.15,0.59,0,*45
1500465838.78,1366,20.31,74544.5,21.35,5.07,-1.51,0,*50
1500465840.0,1367,20.31,74544.5,21.37,4.05,-2.83,0,*5C
1500465841.21,1368,20.31,74544.0,21.37,4.81,-2.07,0,*53
1500465842.42,1369,20.31,74542.3,21.41,5.29,-1.83,0,*5F
1500465843.6,1370,20.31,74544.5,21.41,2.95,-4.41,0,*5C
1500465844.84,1371,20.31,74546.0,21.45,2.69,-4.93,0,*55
1500465846.05,1372,20.31,74542.3,21.45,2.13,-5.51,0,*54
1500465847.27,1373,20.31,74544.0,21.45,2.61,-4.85,0,*58
1500465848.51,1374,20.31,74540.8,21.47,3.93,-3.43,0,*5C
1500465849.71,1375,20.31,74540.3,21.49,3.59,-3.55,0,*52
1500465850.92,1376,20.31,74544.3,21.53,4.05,-3.19,0,*5C
1500465852.15,1377,20.31,74544.3,21.57,5.07,-2.11,0,*53
1500465853.37,1378,20.31,74540.0,21.63,4.97,-2.19,0,*5B
1500465854.63,1379,20.31,74542.5,21.69,5.05,-2.07,0,*55
1500465855.85,1380,20.31,74542.8,21.73,5.15,-1.95,0,*51
1500465857.09,1381,20.31,74542.3,21.81,4.79,-2.31,0,*5B
1500465858.32,1382,20.31,74540.8,21.85,5.19,-1.99,0,*5A
1500465859.53,1383,20.31,74546.0,21.93,4.63,-2.39,0,*59
1500465860.73,1384,20.31,74546.8,21.97,3.97,-3.03,0,*5E
1500465861.97,1385,20.31,74540.8,22.03,4.27,-2.67,0,*5E
1500465863.23,1386,20.31,74540.5,22.07,4.67,-2.11,0,*5C
1500465864.45,1387,20.31,74546.3,22.15,3.71,-3.15,0,*5B
1500465865.69,1388,20.31,74542.0,22.19,4.11,-2.63,0,*59
1500465866.88,1389,20.31,74542.5,22.27,3.81,-2.99,0,*5E
1500465868.11,1390,20.31,74544.8,22.29,3.71,-2.95,0,*5B
1500465869.34,1391,20.31,74542.5,22.33,3.41,-3.35,0,*59
1500465870.57,1392,20.31,74544.0,22.37,2.81,-3.91,0,*5D
1500465871.79,1393,20.31,74544.0,22.43,3.19,-3.55,0,*57
1500465873.0,1394,20.31,74546.3,22.49,2.35,-4.37,0,*56
1500465874.21,1395,20.31,74542.5,22.51,1.97,-4.61,0,*56
1500465875.42,1396,20.31,74544.0,22.55,1.93,-4.65,0,*51
1500465876.65,1397,20.31,74544.5,22.59,1.51,-4.89,0,*50
1500465877.85,1398,20.31,74542.8,22.63,2.01,-4.33,0,*51
1500465879.07,1399,20.31,74542.8,22.67,1.85,-4.49,0,*56
1500465880.27,1400,20.31,74542.5,22.71,0.17,-6.31,0,*61
1500465881.45,1401,20.31,74544.3,22.71,0.33,-6.05,0,*61
1500465882.65,1402,20.31,74546.3,22.75,0.09,-6.23,0,*5B
1500465883.86,1403,20.31,74546.8,22.77,0.01,-6.23,0,*50
1500465885.07,1404,20.31,74546.0,22.81,-0.65,-6.85,0,*4D
1500465886.24,1405,20.31,74542.5,22.83,-0.29,-6.39,0,*41
1500465887.43,1406,20.31,74546.5,22.85,-0.49,-6.43,0,*4F
1500465888.64,1407,20.31,74540.8,22.85,-0.89,-6.73,0,*41
1500465889.87,1408,20.31,74542.8,22.87,-0.57,-6.19,0,*43
1500465891.09,1409,20.31,74544.3,22.93,-1.05,-6.55,0,*79
1500465892.29,1410,20.31,74540.8,22.95,-0.15,-5.39,0,*4E
1500465893.54,1411,20.31,74544.3,22.99,0.17,-4.89,0,*66
1500465894.78,1412,20.31,74546.8,23.01,-0.27,-5.23,0,*4A
1500465895.99,1413,20.31,74540.5,23.05,-0.77,-5.69,0,*44
1500465897.17,1414,20.31,74544.5,23.09,-1.75,-6.43,0,*77
1500465898.39,1415,20.31,74544.0,23.09,-1.39,-6.01,0,*78
1500465899.59,1416,20.31,74544.5,23.15,-1.59,-6.05,0,*74
1500465900.84,1417,20.31,74542.5,23.17,-2.11,-6.31,0,*7F
1500465902.08,1418,20.31,74546.3,23.19,-1.13,-5.19,0,*76
1500465903.33,1419,20.31,74544.5,23.21,-1.33,-5.11,0,*76
1500465904.57,1420,20.31,74544.0,23.27,-1.09,-4.73,0,*76
1500465905.81,1421,20.31,74540.0,23.29,-1.55,-5.11,0,*75
1500465907.07,1422,20.31,74542.8,23.33,-1.47,-4.81,0,*76
1500465908.29,1423,20.31,74544.0,23.37,-2.19,-5.43,0,*74
1500465909.5,1424,20.31,74542.8,23.39,-2.03,-5.35,0,*77
1500465910.71,1425,20.31,74546.3,23.43,-2.35,-5.31,0,*7A
1500465911.98,1426,20.31,74540.0,23.45,-2.07,-4.85,0,*70
1500465913.19,1427,20.31,74540.8,23.47,-2.39,-5.23,0,*73
1500465914.43,1428,20.31,74542.0,23.51,-1.87,-4.41,0,*78
1500465915.67,1429,20.31,74540.8,23.53,-2.71,-5.31,0,*77
1500465916.88,1430,20.31,74546.5,23.57,-2.43,-4.69,0,*76
1500465918.11,1431,20.31,74546.8,23.63,-2.99,-5.15,0,*7D
1500465919.32,1432,20.31,74542.3,23.65,-3.47,-5.39,0,*74
1500465920.56,1433,20.31,74544.0,23.67,-3.23,-5.15,0,*7B
1500465921.77,1434,20.31,74540.5,23.69,-3.03,-4.81,0,*7C
1500465923.04,1435,20.31,74540.0,23.71,-3.59,-5.19,0,*7B
1500465924.28,1436,20.31,74542.3,23.73,-3.55,-5.03,0,*7D
1500465925.51,1437,20.31,74540.0,23.77,-3.83,-5.27,0,*75
1500465926.71,1438,20.31,74540.5,23.79,-4.13,-5.35,0,*79
1500465927.9,1439,20.31,74542.0,23.83,-4.41,-5.51,0,*78
1500465929.16,1440,20.31,74542.0,23.85,-4.73,-5.77,0,*75
1500465930.34,1441,20.31,74542.8,23.87,-4.37,-5.35,0,*70
1500465931.61,1442,20.31,74540.3,23.89,-4.89,-5.93,0,*74
1500465932.83,1443,20.31,74540.8,23.91,-4.29,-5.03,0,*7F
1500465934.07,1444,20.31,74542.3,23.93,-4.37,-5.03,0,*75
1500465935.25,1445,20.31,74540.8,23.95,-4.49,-4.99,0,*79
1500465936.5,1446,20.31,74540.5,23.97,-4.65,-4.89,0,*77
1500465937.72,1447,20.31,74540.0,23.99,-5.19,-5.55,0,*72
1500465938.94,1448,20.31,74540.3,23.99,-4.99,-5.23,0,*75
1500465940.17,1449,20.31,74540.0,24.05,-5.81,-6.13,0,*7E
1500465941.39,1450,20.31,74538.8,24.05,-6.51,-6.51,0,*7E
1500465942.63,1451,20.31,74538.8,24.05,-6.05,-5.89,0,*78
1500465943.89,1452,20.31,74538.0,24.09,-7.01,-6.93,0,*7A
1500465945.11,1453,20.31,74538.3,24.09,-6.55,-6.35,0,*77
1500465946.34,1454,20.31,74538.3,24.09,-6.55,-6.23,0,*77
1500465947.56,1455,20.31,74540.3,24.09,-8.89,-8.63,0,*73
1500465948.76,1456,20.31,74536.3,24.07,-9.31,-8.81,0,*70
1500465949.95,1457,20.31,74536.0,24.07,-10.27,-9.97,0,*48
1500465951.17,1458,20.31,74536.8,24.07,-10.31,-9.83,0,*45
1500465952.4,1459,20.31,74538.3,24.01,-9.93,-9.41,0,*7C
1500465953.62,1460,20.31,74536.3,23.97,-9.19,-8.55,0,*78
1500465954.87,1461,20.31,74536.5,23.97,-9.15,-8.37,0,*71
1500465956.09,1462,20.31,74536.8,23.93,-11.19,-10.23,0,*7F
1500465957.37,1463,20.31,74536.0,23.93,-11.51,-10.41,0,*76
1500465958.62,1464,20.31,74538.5,23.89,-11.51,-10.23,0,*7E
1500465959.85,1465,20.31,74536.0,23.85,-9.53,-8.17,0,*76
1500465961.12,1466,20.31,74538.0,23.85,-9.37,-7.69,0,*71
1500465962.32,1467,20.31,74540.5,23.85,-9.93,-8.33,0,*7E
1500465963.56,1468,20.31,74540.3,23.85,-8.89,-7.35,0,*72
1500465964.83,1469,20.31,74542.5,23.85,-10.75,-9.37,0,*45
1500465966.07,1470,20.31,74542.3,23.79,-13.11,-11.81,0,*7B
1500465967.3,1471,20.31,74540.0,23.73,-13.87,-12.47,0,*76
1500465968.52,1472,20.31,74542.8,23.69,-13.65,-12.11,0,*71
1500465969.75,1473,20.31,74540.0,23.65,-14.15,-12.35,0,*7A
1500465970.97,1474,20.31,74540.3,23.61,-13.65,-11.85,0,*71
1500465972.22,1475,20.31,74538.3,23.53,-13.61,-11.81,0,*71
1500465973.44,1476,20.31,74542.3,23.49,-15.25,-13.33,0,*74
1500465974.67,1477,20.31,74536.0,23.43,-14.47,-12.47,0,*78
1500465975.89,1478,20.31,74542.3,23.39,-14.97,-12.89,0,*75
1500465977.11,1479,20.31,74538.8,23.31,-14.69,-12.53,0,*7A
1500465978.34,1480,20.31,74538.5,23.27,-14.51,-12.03,0,*75
1500465979.57,1481,20.31,74536.8,23.23,-13.61,-10.93,0,*7F
1500465980.8,1482,20.31,74536.5,23.21,-13.51,-10.85,0,*7A
1500465982.07,1483,20.31,74542.3,23.15,-14.79,-11.93,0,*77
1500465983.28,1484,20.31,74540.8,23.15,-12.25,-9.31,0,*4E
1500465984.5,1485,20.31,74540.8,23.11,-11.41,-8.41,0,*4C
1500465985.71,1486,20.31,74536.0,23.09,-11.97,-9.05,0,*4C
1500465986.9,1487,20.31,74538.5,23.09,-11.41,-8.25,0,*45
1500465988.1,1488,20.31,74540.0,23.09,-10.45,-7.19,0,*4F
1500465989.3,1489,20.31,74538.5,23.09,-10.97,-7.87,0,*46
1500465990.49,1490,20.31,74536.0,23.05,-13.15,-9.97,0,*44
1500465991.67,1491,20.31,74536.0,23.05,-13.15,-9.97,0,*45
1500465992.9,1492,20.31,74542.0,23.01,-14.51,-11.15,0,*76
1500465994.12,1493,20.31,74540.3,22.97,-15.15,-11.81,0,*75
1500465995.37,1494,20.31,74538.5,22.89,-16.65,-13.29,0,*79
1500465996.6,1495,20.31,74540.3,22.85,-15.67,-12.35,0,*79
1500465997.8,1496,20.31,74540.5,22.83,-15.95,-12.25,0,*70
1500465999.02,1497,20.31,74538.0,22.75,-16.69,-13.11,0,*7E
1500466000.21,1498,20.31,74540.8,22.71,-17.31,-13.65,0,*7A
1500466001.49,1499,20.31,74536.8,22.65,-18.35,-14.51,0,*75
1500466002.74,1500,20.31,74540.5,22.57,-16.37,-12.57,0,*79
1500466003.96,1501,20.38,74544.8,22.53,-17.49,-13.55,0,*77
1500466005.21,1502,20.31,74540.0,22.49,-18.59,-14.61,0,*71
1500466006.41,1503,20.31,74540.8,22.43,-18.41,-14.15,0,*70
1500466007.69,1504,20.31,74542.5,22.37,-17.45,-13.29,0,*77
1500466008.96,1505,20.31,74540.0,22.33,-16.23,-12.11,0,*79
1500466010.17,1506,20.31,74540.0,22.29,-18.21,-13.93,0,*76
1500466011.42,1507,20.31,74540.8,22.21,-18.41,-13.97,0,*7D
1500466012.67,1508,20.31,74538.5,22.17,-16.65,-12.07,0,*77
1500466013.91,1509,20.38,74542.5,22.13,-16.51,-11.85,0,*7C
1500466015.14,1510,20.31,74540.8,22.09,-15.49,-10.75,0,*7B
1500466016.33,1511,20.31,74542.0,22.09,-14.65,-9.67,0,*4E
1500466017.54,1512,20.31,74542.8,22.07,-14.65,-9.71,0,*44
1500466018.74,1513,20.31,74540.3,22.05,-14.89,-9.93,0,*49
1500466019.93,1514,20.31,74540.3,22.05,-14.37,-9.23,0,*40
1500466021.15,1515,20.31,74536.5,22.03,-13.55,-8.41,0,*41
1500466022.38,1516,20.38,74540.8,21.99,-13.87,-8.63,0,*4D
1500466023.62,1517,20.31,74540.8,21.99,-14.89,-9.57,0,*43
1500466024.89,1518,20.31,74542.0,21.99,-14.79,-9.57,0,*43
1500466026.15,1519,20.38,74540.8,21.95,-15.43,-10.15,0,*78
1500466027.37,1520,20.31,74540.0,21.93,-16.79,-11.55,0,*7B
1500466028.62,1521,20.31,74536.3,21.91,-16.79,-11.51,0,*7C
1500466029.85,1522,20.31,74542.5,21.85,-16.75,-11.15,0,*76
1500466031.07,1523,20.31,74542.3,21.83,-15.43,-10.09,0,*7B
1500466032.29,1524,20.31,74538.8,21.79,-15.07,-9.57,0,*4A
1500466033.51,1525,20.31,74536.8,21.79,-14.01,-8.33,0,*4F
1500466034.74,1526,20.31,74542.5,21.79,-13.73,-8.07,0,*49
1500466035.94,1527,20.31,74540.8,21.79,-14.23,-8.45,0,*4C
1500466037.15,1528,20.31,74542.5,21.73,-14.69,-9.01,0,*46
1500466038.4,1529,20.31,74542.3,21.73,-15.29,-9.53,0,*45
1500466039.64,1530,20.31,74542.5,21.69,-14.51,-8.63,0,*4A
1500466040.87,1531,20.31,74540.3,21.69,-14.89,-9.01,0,*4B
1500466042.09,1532,20.38,74544.0,21.67,-15.53,-9.45,0,*40
1500466043.33,1533,20.31,74540.3,21.65,-15.75,-9.49,0,*4B
1500466044.56,1534,20.31,74542.5,21.61,-16.55,-10.23,0,*7D
1500466045.8,1535,20.31,74536.5,21.57,-16.89,-10.15,0,*7D
1500466047.06,1536,20.31,74538.8,21.57,-16.69,-10.15,0,*70
1500466048.29,1537,20.38,74540.0,21.51,-16.97,-10.27,0,*77
1500466049.53,1538,20.38,74542.3,21.49,-16.69,-10.01,0,*74
1500466050.75,1539,20.38,74538.3,21.43,-18.11,-11.23,0,*7F
1500466052.04,1540,20.38,74538.3,21.43,-17.55,-10.67,0,*7F
1500466053.29,1541,20.31,74538.0,21.39,-17.03,-10.23,0,*70
1500466054.52,1542,20.31,74536.8,21.35,-16.93,-10.05,0,*73
1500466055.77,1543,20.31,74538.8,21.35,-16.55,-9.53,0,*43
1500466057.0,1544,20.31,74536.5,21.29,-16.69,-9.71,0,*46
1500466058.25,1545,20.38,74540.8,21.25,-16.69,-9.37,0,*49
1500466059.49,1546,20.31,74542.3,21.23,-14.83,-7.87,0,*4F
1500466060.73,1547,20.38,74542.3,21.23,-14.33,-7.27,0,*4F
1500466061.96,1548,20.31,74542.3,21.25,-12.97,-5.85,0,*44
1500466063.21,1549,20.31,74542.0,21.25,-11.81,-4.85,0,*40
1500466064.46,1550,20.31,74540.8,21.25,-12.71,-5.31,0,*4A
1500466065.68,1551,20.38,74544.3,21.29,-12.39,-5.15,0,*4D
1500466066.88,1552,20.38,74542.5,21.29,-13.23,-5.97,0,*4E
1500466068.14,1553,20.38,74544.5,21.25,-14.05,-6.63,0,*48
1500466069.34,1554,20.31,74542.8,21.25,-14.15,-6.77,0,*4B
1500466070.6,1555,20.31,74540.8,21.25,-13.83,-6.27,0,*47
1500466071.87,1556,20.38,74542.5,21.27,-12.65,-5.19,0,*41
1500466073.09,1557,20.31,74540.0,21.25,-11.59,-4.17,0,*41
1500466074.32,1558,20.31,74542.0,21.25,-11.67,-4.09,0,*4C
1500466075.58,1559,20.38,74544.0,21.27,-10.15,-2.51,0,*40
1500466076.82,1560,20.38,74542.8,21.31,-8.63,-1.05,0,*77
1500466078.04,1561,20.31,74540.8,21.37,-8.03,-0.33,0,*42
1500466079.28,1562,20.31,74540.3,21.43,-7.65,-0.11,0,*4D
1500466080.52,1563,20.31,74540.3,21.47,-7.15,0.59,0,*6E
1500466081.73,1564,20.31,74542.5,21.53,-6.31,1.47,0,*55
1500466082.94,1565,20.38,74546.0,21.59,-6.39,1.33,0,*55
1500466084.14,1566,20.31,74540.3,21.67,-6.43,1.29,0,*5D
1500466085.4,1567,20.31,74540.8,21.73,-5.77,2.25,0,*52
1500466086.66,1568,20.38,74544.8,21.81,-5.23,2.47,0,*55
1500466087.83,1569,20.38,74544.0,21.87,-5.39,2.27,0,*5F
1500466089.07,1570,20.38,74540.8,21.93,-5.77,2.05,0,*58
1500466090.27,1571,20.31,74540.3,21.97,-6.73,1.09,0,*55
1500466091.53,1572,20.38,74540.0,22.03,-7.35,0.55,0,*63
1500466092.76,1573,20.38,74544.3,22.07,-7.43,0.43,0,*60
1500466094.0,1574,20.38,74542.3,22.11,-7.95,-0.11,0,*41
1500466095.24,1575,20.38,74540.5,22.11,-7.91,0.17,0,*6F
1500466096.48,1576,20.31,74540.8,22.15,-6.81,1.21,0,*5C
1500466097.68,1577,20.38,74544.3,22.17,-6.47,1.47,0,*55
1500466098.87,1578,20.38,74544.5,22.19,-7.11,0.97,0,*6A
1500466100.11,1579,20.31,74540.3,22.25,-6.81,1.33,0,*53
1500466101.37,1580,20.38,74544.3,22.29,-5.93,2.17,0,*5C
1500466102.58,1581,20.38,74544.8,22.33,-5.47,2.61,0,*5E
1500466103.83,1582,20.38,74540.3,22.37,-7.27,1.09,0,*50
1500466105.07,1583,20.31,74542.8,22.39,-6.93,1.37,0,*5C
1500466106.3,1584,20.38,74542.5,22.43,-6.27,2.13,0,*5C
1500466107.5,1585,20.38,74540.0,22.51,-6.59,1.71,0,*50
1500466108.71,1586,20.38,74542.8,22.53,-6.09,2.35,0,*57
1500466109.95,1587,20.38,74544.5,22.55,-5.31,3.15,0,*5B
1500466111.17,1588,20.38,74540.5,22.59,-5.11,3.53,0,*58
1500466112.35,1589,20.31,74542.5,22.63,-4.25,4.19,0,*5F
1500466113.58,1590,20.38,74544.0,22.71,-3.71,4.63,0,*5F
1500466114.79,1591,20.38,74544.5,22.77,-4.09,4.41,0,*50
1500466116.02,1592,20.38,74546.0,22.81,-4.57,4.01,0,*55
1500466117.23,1593,20.38,74544.0,22.87,-4.65,3.89,0,*54